Alpena, MI

7:30 AM EDT on March 30, 2017 (GMT -0400)
Alpena County Regional

Weather History for KAPN - July, 2013

Change the Weather History Date:

Sunday, July 14, 2013

  Actual Average Record
Temperature  
Mean Temperature 69 °F 68 °F  
Max Temperature 86 °F 80 °F 102 °F (1983)
Min Temperature 52 °F 56 °F 40 °F (1926)
Degree Days  
Heating Degree Days 0 1  
Month to date heating degree days 21 24  
Since 1 June heating degree days 157 167  
Since 1 July heating degree days 21 24  
Cooling Degree Days 4 4  
Month to date cooling degree days 46 53  
Year to date cooling degree days 123 122  
Since 1 June cooling degree days 110 109  
Growing Degree Days 19 (Base 50)    
Moisture  
Dew Point 61 °F    
Average Humidity 71    
Maximum Humidity 93    
Minimum Humidity 48    
Precipitation  
Precipitation 0.00 in 0.10 in 0.82 in (2004)
Month to date precipitation 0.35 1.39  
Year to date precipitation 17.31 13.91  
Sea Level Pressure  
Sea Level Pressure 30.26 in    
Wind  
Wind Speed 5 mph (SSE)    
Max Wind Speed 15 mph    
Max Gust Speed 20 mph    
Visibility 10 miles    
Events Rain    
T = Trace of Precipitation, MM = Missing Value Source: NWS Daily Summary

Daily Weather History Graph

Daily Weather History Graph

Search for Another Location

Airport or City:

Trip Planner

Search our weather history database for the weather conditions in past years. The results will help you decide how hot, cold, wet, or windy it might be!

Date:

Astronomy

Jul. 14, 2013 Rise Set
Actual Time 6:00 AM EDT 9:18 PM EDT
Civil Twilight 5:24 AM EDT 9:54 PM EDT
Nautical Twilight 4:37 AM EDT 10:41 PM EDT
Astronomical Twilight 3:38 AM EDT 11:39 PM EDT
Moon 12:36 PM EDT (7/14) No Moon Set
Length of Visible Light 16h 30m
Length of Day
15h 18m
Waxing Crescent, 35% of the Moon is Illuminated
Jul 14
Waxing Crescent
Jul 15
First Quarter
Jul 22
Full
Jul 29
Last Quarter
Aug 6
New

Hourly Weather History & Observations

Time (EDT) Temp. Heat Index Dew Point Humidity Pressure Visibility Wind Dir Wind Speed Gust Speed Precip Events Conditions
12:54 AM 60.1 °F - 54.0 °F 80% 30.23 in 10.0 mi Calm Calm - N/A   Clear
1:54 AM 55.9 °F - 53.1 °F 90% 30.24 in 10.0 mi Calm Calm - N/A   Clear
2:54 AM 54.0 °F - 52.0 °F 93% 30.25 in 10.0 mi Calm Calm - N/A   Clear
3:54 AM 55.0 °F - 52.0 °F 89% 30.26 in 10.0 mi Calm Calm - N/A   Clear
4:54 AM 53.1 °F - 51.1 °F 93% 30.26 in 10.0 mi Calm Calm - N/A   Clear
5:54 AM 53.1 °F - 51.1 °F 93% 30.27 in 10.0 mi Calm Calm - N/A   Clear
6:54 AM 55.0 °F - 53.1 °F 93% 30.28 in 10.0 mi Calm Calm - N/A   Clear
7:54 AM 63.0 °F - 57.9 °F 84% 30.28 in 10.0 mi Calm Calm - N/A   Clear
8:54 AM 72.0 °F - 62.1 °F 71% 30.28 in 10.0 mi Calm Calm - N/A   Clear
9:54 AM 77.0 °F - 64.9 °F 66% 30.28 in 10.0 mi SW 4.6 mph - N/A   Clear
10:54 AM 81.0 °F 82.2 °F 63.0 °F 54% 30.28 in 10.0 mi SSW 4.6 mph - N/A   Clear
11:54 AM 81.0 °F 81.7 °F 61.0 °F 50% 30.27 in 10.0 mi SSW 4.6 mph - N/A   Partly Cloudy
12:54 PM 82.9 °F 85.0 °F 66.0 °F 56% 30.27 in 10.0 mi ESE 11.5 mph - N/A   Partly Cloudy
1:54 PM 84.9 °F 87.1 °F 66.0 °F 53% 30.27 in 10.0 mi ESE 10.4 mph - N/A   Clear
2:54 PM 84.0 °F 84.9 °F 63.0 °F 49% 30.27 in 10.0 mi ESE 12.7 mph - N/A   Clear
3:54 PM 84.9 °F 86.1 °F 64.0 °F 49% 30.26 in 10.0 mi SE 10.4 mph - N/A   Clear
4:54 PM 84.0 °F 84.9 °F 63.0 °F 49% 30.25 in 10.0 mi ESE 11.5 mph - N/A   Clear
5:54 PM 84.0 °F 85.4 °F 64.0 °F 51% 30.24 in 10.0 mi SE 12.7 mph - N/A   Clear
6:54 PM 81.0 °F 82.5 °F 64.0 °F 56% 30.23 in 10.0 mi SE 11.5 mph - N/A   Clear
7:54 PM 78.1 °F - 64.9 °F 64% 30.23 in 10.0 mi ESE 8.1 mph - N/A   Clear
8:54 PM 75.0 °F - 66.0 °F 73% 30.23 in 10.0 mi SE 3.5 mph - N/A   Clear
9:47 PM 71.6 °F - 64.4 °F 78% 30.25 in 2.5 mi South 4.6 mph - 0.00 in Rain Light Rain
9:54 PM 72.0 °F - 64.9 °F 78% 30.24 in 5.0 mi SSE 5.8 mph - 0.00 in Rain Light Rain
10:54 PM 73.0 °F - 64.9 °F 76% 30.25 in 10.0 mi South 5.8 mph - 0.00 in   Clear
11:54 PM 68.0 °F - 64.0 °F 87% 30.25 in 10.0 mi Calm Calm - N/A   Clear